Orbital Elements at Epoch 2459200.5 (2020-Dec-17.0) TDB
Reference: JPL 31 (heliocentric ecliptic J2000)
Element | Value | Uncertainty (1-sigma) | Units |
e | .2197921078338126 | 2.7095e-08 | |
a | 2.664467281136509 | 8.3164e-09 | au |
q | 2.078838401161288 | 7.1933e-08 | au |
i | 1.54992017563676 | 3.4704e-06 | deg |
node | 269.0369403790131 | 0.00013255 | deg |
peri | 139.4843182290533 | 0.00013292 | deg |
M | 33.76661800495997 | 9.0211e-06 | deg |
tp | 2459051.495605060037 (2020-Jul-20.99560506) | 3.9636e-05 | TDB |
period | 1588.598010333977 4.35 | 7.4375e-06 2.036e-08 | d yr |
n | .226614913060552 | 1.061e-09 | deg/d |
Q | 3.25009616111173 | 1.0144e-08 | au |
|
| | Orbit Determination Parameters
Additional Information
|